Вернуться в каталог

RADUGA 19

АктивенВоенныеGEO
NORAD 17046·PAYLOAD·🇷🇺 Russia

Запущен Oct 25, 1986 с Baikonur Cosmodrome

Loading…

TLE

СвежийSource: Space-Track

Эпоха: Sep 11, 2026, 14:52 UTC

1 17046U 86082A   26254.61966013 -.00000015  00000-0  00000+0 0  9999
2 17046  11.0362 324.8727 0010589 200.1910 302.9547  0.98458983143767

Отслеживайте RADUGA 19 в реальном времени с AllMySat

Download on the App Store